NOAA 16 DEB

Satellite information

Favourite Embed

Satellite Type and Status

DEBRISIN ORBIT

Key statistics

Satellite NOAA 16 DEB at a glance.

Uptime

9055

Days in orbit

Revolutions

≈ 14.2

Per day

Orbit

SSO

Sun Synchronous Orbit

Inclination

98.7

Latest

Satellite identification and parameters

Extended collection of information and parameters for NOAA 16 DEB.

Object identification

Identified? True

Debris? True

Object name: NOAA 16 DEB

International designator: 2000-055HW

Object number (NORAD): 41353

Object ID (CCSDS): 41353

Country: UNITED STATES OF AMERICA (US)

Current information (Y/N): Y

RCS size: SMALL

Orbital parameters

Period: 101.19 minutes

Inclination: 98.7125 deg

SMA: 7193.151 km

Apoapsis: 831.479 km

Periapsis: 798.553 km

RAAN: 252.1884 deg

Eccentricy: 0.0022887

Argument of periapsis: 359.2738 deg

Mean anomaly: 0.8403 deg

Mean motion: 14.2306265 rev/day

Mean motion (dot): 0.00002427 rev/day2

B* drag term: 0.0010927 1/REarth

Two-line elements (TLE)

Creation date: July 6, 2025, 6:05 p.m.

Reference frame: TEME

Reference center: EARTH

Epoch: July 6, 2025, 12:21 a.m. UTC

TLE line 0: 0 NOAA 16 DEB

TLE line 1: 1 41353U 00055HW 25187.01462639 .00002427 00000-0 10927-2 0 9996

TLE line 2: 2 41353 98.7125 252.1884 0022887 359.2738 0.8403 14.23062650486691

Live tracking on map

Real-time ground track for satellite NOAA 16 DEB.

In-orbit conjunctions

A list of the most updated potential collisions computed for object NOAA 16 DEB.

Target Orbit TCA Probability of collision Miss distance Type
CZ-6A DEB LEO 2024-12-18 02:32:11 0.0002071488 595.0 (m) DEBRIS
SL-16 DEB LEO 2024-12-05 17:29:26 0.0001897753 209.0 (m) DEBRIS
SL-12 R/B(2) LEO 2024-11-14 08:00:51 0.0001443953 933.0 (m) ROCKET BODY
SL-16 R/B LEO 2024-10-31 09:16:57 0.0001025442 214.0 (m) ROCKET BODY
MAGION 2 HEO 2024-07-19 08:35:46 0.0004018134 689.0 (m) PAYLOAD

Associated space launch

The NOAA K, L and M POES satellites begin the fifth generation of improved environmental monitoring in support of NOAA missions. The instrument payload has significant improvements and additions/deletions. The instrument changes have effected the spacecraft subsystems and data formats.

NOAA 16 DEB was lifted into orbit during the mission ‘Titan II SLV | NOAA 16’, on board a Titan II SLV space rocket.

The launch took place on Sept. 21, 2000, 10:22 a.m. from Space Launch Complex 4W.

For more information about the launch, click the button.

Launch to space Titan II SLV | NOAA 16
Titan II SLV | NOAA 16

Agency: N/A

Status: Launch Successful

Launch date: Sept. 21, 2000, 10:22 a.m. UTC

Rocket: Titan II SLV

Launch pad: Space Launch Complex 4W

Location: Vandenberg SFB, CA, USA

...

Latest news about this satellite

There are no fresh news available about this satellite. Check back as we update our databases every day.


Newsletter sign-up

Weekly statistics, charts and insights to help you stay on top of the space industry.